Year,Month,Day,Hour,Minute,Value (Times are PST for temperature in C)
2010,03,05,00,00,4.20
2010,03,05,00,01,4.20
2010,03,05,00,02,4.20
2010,03,05,00,03,4.20
2010,03,05,00,04,4.20
2010,03,05,00,05,4.20
2010,03,05,00,06,4.20
2010,03,05,00,07,4.20
2010,03,05,00,08,4.20
2010,03,05,00,09,4.20
2010,03,05,00,10,4.20
2010,03,05,00,11,4.20
2010,03,05,00,12,4.20
2010,03,05,00,13,4.20
2010,03,05,00,14,4.20
2010,03,05,00,15,4.20
2010,03,05,00,16,4.20
2010,03,05,00,17,4.20
2010,03,05,00,18,4.20
2010,03,05,00,19,4.20
2010,03,05,00,20,4.20
2010,03,05,00,21,4.20
2010,03,05,00,22,4.20
2010,03,05,00,23,4.20
2010,03,05,00,24,4.20
2010,03,05,00,25,4.10
2010,03,05,00,26,4.10
2010,03,05,00,27,4.10
2010,03,05,00,28,4.10
2010,03,05,00,29,4.10
2010,03,05,00,30,4.10
2010,03,05,00,31,4.10
2010,03,05,00,32,4.10
2010,03,05,00,33,4.10
2010,03,05,00,34,4.10
2010,03,05,00,35,4.10
2010,03,05,00,36,4.10
2010,03,05,00,37,4.10
2010,03,05,00,38,4.10
2010,03,05,00,39,4.10
2010,03,05,00,40,4.10
2010,03,05,00,41,4.10
2010,03,05,00,42,4.10
2010,03,05,00,43,4.10
2010,03,05,00,44,4.10
2010,03,05,00,45,4.10
2010,03,05,00,46,4.10
2010,03,05,00,47,4.10
2010,03,05,00,48,4.10
2010,03,05,00,49,4.10
2010,03,05,00,50,4.10
2010,03,05,00,51,4.10
2010,03,05,00,52,4.10
2010,03,05,00,53,4.00
2010,03,05,00,54,4.00
2010,03,05,00,55,4.00
2010,03,05,00,56,4.00
2010,03,05,00,57,4.00
2010,03,05,00,58,4.00
2010,03,05,00,59,4.00
2010,03,05,01,00,4.00
2010,03,05,01,01,4.00
2010,03,05,01,02,4.10
2010,03,05,01,03,4.10
2010,03,05,01,04,4.10
2010,03,05,01,05,4.00
2010,03,05,01,06,4.00
2010,03,05,01,07,4.00
2010,03,05,01,08,4.10
2010,03,05,01,09,4.10
2010,03,05,01,10,4.10
2010,03,05,01,11,4.10
2010,03,05,01,12,4.10
2010,03,05,01,13,4.10
2010,03,05,01,14,4.00
2010,03,05,01,15,4.00
2010,03,05,01,16,4.00
2010,03,05,01,17,4.00
2010,03,05,01,18,4.00
2010,03,05,01,19,4.00
2010,03,05,01,20,4.00
2010,03,05,01,21,4.00
2010,03,05,01,22,4.00
2010,03,05,01,23,4.00
2010,03,05,01,24,4.00
2010,03,05,01,25,4.00
2010,03,05,01,26,4.00
2010,03,05,01,27,4.00
2010,03,05,01,28,4.00
2010,03,05,01,29,4.00
2010,03,05,01,30,4.00
2010,03,05,01,31,4.00
2010,03,05,01,32,4.00
2010,03,05,01,33,4.00
2010,03,05,01,34,4.00
2010,03,05,01,35,3.90
2010,03,05,01,36,3.90
2010,03,05,01,37,3.90
2010,03,05,01,38,3.90
2010,03,05,01,39,3.90
2010,03,05,01,40,3.90
2010,03,05,01,41,3.90
2010,03,05,01,42,3.90
2010,03,05,01,43,3.90
2010,03,05,01,44,3.90
2010,03,05,01,45,3.90
2010,03,05,01,46,3.90
2010,03,05,01,47,3.90
2010,03,05,01,48,3.90
2010,03,05,01,49,3.90
2010,03,05,01,50,3.90
2010,03,05,01,51,3.90
2010,03,05,01,52,3.90
2010,03,05,01,53,3.90
2010,03,05,01,54,3.90
2010,03,05,01,55,3.90
2010,03,05,01,56,4.00
2010,03,05,01,57,4.00
2010,03,05,01,58,4.00
2010,03,05,01,59,4.00
2010,03,05,02,00,4.00
2010,03,05,02,01,4.00
2010,03,05,02,02,4.00
2010,03,05,02,03,3.90
2010,03,05,02,04,3.90
2010,03,05,02,05,3.90
2010,03,05,02,06,3.90
2010,03,05,02,07,3.90
2010,03,05,02,08,3.90
2010,03,05,02,09,3.90
2010,03,05,02,10,3.90
2010,03,05,02,11,3.90
2010,03,05,02,12,3.90
2010,03,05,02,13,3.90
2010,03,05,02,14,3.90
2010,03,05,02,15,3.90
2010,03,05,02,16,3.90
2010,03,05,02,17,3.90
2010,03,05,02,18,3.90
2010,03,05,02,19,3.90
2010,03,05,02,20,3.90
2010,03,05,02,21,3.90
2010,03,05,02,22,3.90
2010,03,05,02,23,3.90
2010,03,05,02,24,3.90
2010,03,05,02,25,3.90
2010,03,05,02,26,3.90
2010,03,05,02,27,3.90
2010,03,05,02,28,3.90
2010,03,05,02,29,3.90
2010,03,05,02,30,3.90
2010,03,05,02,31,3.90
2010,03,05,02,32,3.90
2010,03,05,02,33,3.90
2010,03,05,02,34,3.90
2010,03,05,02,35,3.90
2010,03,05,02,36,3.90
2010,03,05,02,37,3.90
2010,03,05,02,38,3.90
2010,03,05,02,39,3.90
2010,03,05,02,40,3.90
2010,03,05,02,41,3.90
2010,03,05,02,42,3.90
2010,03,05,02,43,3.90
2010,03,05,02,44,3.90
2010,03,05,02,45,3.80
2010,03,05,02,46,3.90
2010,03,05,02,47,3.90
2010,03,05,02,48,3.90
2010,03,05,02,49,3.90
2010,03,05,02,50,3.90
2010,03,05,02,51,3.90
2010,03,05,02,52,3.90
2010,03,05,02,53,3.90
2010,03,05,02,54,3.90
2010,03,05,02,55,3.90
2010,03,05,02,56,3.90
2010,03,05,02,57,3.90
2010,03,05,02,58,3.90
2010,03,05,02,59,3.90
2010,03,05,03,00,3.90
2010,03,05,03,01,3.80
2010,03,05,03,02,3.80
2010,03,05,03,03,3.80
2010,03,05,03,04,3.80
2010,03,05,03,05,3.80
2010,03,05,03,06,3.80
2010,03,05,03,07,3.80
2010,03,05,03,08,3.80
2010,03,05,03,09,3.80
2010,03,05,03,10,3.80
2010,03,05,03,11,3.80
2010,03,05,03,12,3.80
2010,03,05,03,13,3.80
2010,03,05,03,14,3.80
2010,03,05,03,15,3.70
2010,03,05,03,16,3.70
2010,03,05,03,17,3.70
2010,03,05,03,18,3.70
2010,03,05,03,19,3.70
2010,03,05,03,20,3.70
2010,03,05,03,21,3.60
2010,03,05,03,22,3.60
2010,03,05,03,23,3.60
2010,03,05,03,24,3.60
2010,03,05,03,25,3.60
2010,03,05,03,26,3.60
2010,03,05,03,27,3.50
2010,03,05,03,28,3.50
2010,03,05,03,29,3.50
2010,03,05,03,30,3.50
2010,03,05,03,31,3.50
2010,03,05,03,32,3.50
2010,03,05,03,33,3.50
2010,03,05,03,34,3.50
2010,03,05,03,35,3.50
2010,03,05,03,36,3.40
2010,03,05,03,37,3.40
2010,03,05,03,38,3.40
2010,03,05,03,39,3.40
2010,03,05,03,40,3.40
2010,03,05,03,41,3.40
2010,03,05,03,42,3.40
2010,03,05,03,43,3.40
2010,03,05,03,44,3.40
2010,03,05,03,45,3.30
2010,03,05,03,46,3.30
2010,03,05,03,47,3.30
2010,03,05,03,48,3.30
2010,03,05,03,49,3.30
2010,03,05,03,50,3.30
2010,03,05,03,51,3.30
2010,03,05,03,52,3.30
2010,03,05,03,53,3.30
2010,03,05,03,54,3.30
2010,03,05,03,55,3.30
2010,03,05,03,56,3.30
2010,03,05,03,57,3.30
2010,03,05,03,58,3.30
2010,03,05,03,59,3.30
2010,03,05,04,00,3.30
2010,03,05,04,01,3.20
2010,03,05,04,02,3.20
2010,03,05,04,03,3.20
2010,03,05,04,04,3.20
2010,03,05,04,05,3.20
2010,03,05,04,06,3.20
2010,03,05,04,07,3.20
2010,03,05,04,08,3.20
2010,03,05,04,09,3.20
2010,03,05,04,10,3.20
2010,03,05,04,11,3.20
2010,03,05,04,12,3.20
2010,03,05,04,13,3.10
2010,03,05,04,14,3.10
2010,03,05,04,15,3.10
2010,03,05,04,16,3.10
2010,03,05,04,17,3.10
2010,03,05,04,18,3.10
2010,03,05,04,19,3.10
2010,03,05,04,20,3.10
2010,03,05,04,21,3.10
2010,03,05,04,22,3.00
2010,03,05,04,23,3.00
2010,03,05,04,24,3.00
2010,03,05,04,25,3.00
2010,03,05,04,26,3.00
2010,03,05,04,27,3.00
2010,03,05,04,28,3.00
2010,03,05,04,29,3.00
2010,03,05,04,30,3.00
2010,03,05,04,31,2.90
2010,03,05,04,32,2.90
2010,03,05,04,33,2.90
2010,03,05,04,34,2.90
2010,03,05,04,35,2.90
2010,03,05,04,36,2.90
2010,03,05,04,37,2.90
2010,03,05,04,38,2.90
2010,03,05,04,39,2.90
2010,03,05,04,40,2.90
2010,03,05,04,41,2.80
2010,03,05,04,42,2.80
2010,03,05,04,43,2.90
2010,03,05,04,44,2.90
2010,03,05,04,45,2.90
2010,03,05,04,46,2.80
2010,03,05,04,47,2.80
2010,03,05,04,48,2.80
2010,03,05,04,49,2.80
2010,03,05,04,50,2.80
2010,03,05,04,51,2.80
2010,03,05,04,52,2.80
2010,03,05,04,53,2.80
2010,03,05,04,54,2.80
2010,03,05,04,55,2.80
2010,03,05,04,56,2.80
2010,03,05,04,57,2.80
2010,03,05,04,58,2.80
2010,03,05,04,59,2.80
2010,03,05,05,00,2.80
2010,03,05,05,01,2.80
2010,03,05,05,02,2.80
2010,03,05,05,03,2.80
2010,03,05,05,04,2.80
2010,03,05,05,05,2.80
2010,03,05,05,06,2.80
2010,03,05,05,07,2.80
2010,03,05,05,08,2.80
2010,03,05,05,09,2.80
2010,03,05,05,10,2.80
2010,03,05,05,11,2.80
2010,03,05,05,12,2.80
2010,03,05,05,13,2.80
2010,03,05,05,14,2.80
2010,03,05,05,15,2.80
2010,03,05,05,16,2.80
2010,03,05,05,17,2.80
2010,03,05,05,18,2.80
2010,03,05,05,19,2.80
2010,03,05,05,20,2.80
2010,03,05,05,21,2.80
2010,03,05,05,22,2.80
2010,03,05,05,23,2.80
2010,03,05,05,24,2.80
2010,03,05,05,25,2.80
2010,03,05,05,26,2.80
2010,03,05,05,27,2.80
2010,03,05,05,28,2.80
2010,03,05,05,29,2.80
2010,03,05,05,30,2.80
2010,03,05,05,31,2.70
2010,03,05,05,32,2.70
2010,03,05,05,33,2.70
2010,03,05,05,34,2.70
2010,03,05,05,35,2.70
2010,03,05,05,36,2.70
2010,03,05,05,37,2.70
2010,03,05,05,38,2.70
2010,03,05,05,39,2.60
2010,03,05,05,40,2.60
2010,03,05,05,41,2.60
2010,03,05,05,42,2.60
2010,03,05,05,43,2.60
2010,03,05,05,44,2.60
2010,03,05,05,45,2.60
2010,03,05,05,46,2.60
2010,03,05,05,47,2.50
2010,03,05,05,48,2.50
2010,03,05,05,49,2.50
2010,03,05,05,50,2.50
2010,03,05,05,51,2.50
2010,03,05,05,52,2.50
2010,03,05,05,53,2.50
2010,03,05,05,54,2.50
2010,03,05,05,55,2.50
2010,03,05,05,56,2.50
2010,03,05,05,57,2.50
2010,03,05,05,58,2.50
2010,03,05,05,59,2.50
2010,03,05,06,00,2.50
2010,03,05,06,01,2.50
2010,03,05,06,02,2.50
2010,03,05,06,03,2.50
2010,03,05,06,04,2.50
2010,03,05,06,05,2.50
2010,03,05,06,06,2.50
2010,03,05,06,07,2.50
2010,03,05,06,08,2.50
2010,03,05,06,09,2.40
2010,03,05,06,10,2.40
2010,03,05,06,11,2.40
2010,03,05,06,12,2.40
2010,03,05,06,13,2.40
2010,03,05,06,14,2.40
2010,03,05,06,15,2.40
2010,03,05,06,16,2.40
2010,03,05,06,17,2.40
2010,03,05,06,18,2.40
2010,03,05,06,19,2.40
2010,03,05,06,20,2.40
2010,03,05,06,21,2.40
2010,03,05,06,22,2.40
2010,03,05,06,23,2.30
2010,03,05,06,24,2.30
2010,03,05,06,25,2.30
2010,03,05,06,26,2.30
2010,03,05,06,27,2.30
2010,03,05,06,28,2.30
2010,03,05,06,29,2.30
2010,03,05,06,30,2.30
2010,03,05,06,31,2.20
2010,03,05,06,32,2.20
2010,03,05,06,33,2.20
2010,03,05,06,34,2.20
2010,03,05,06,35,2.20
2010,03,05,06,36,2.20
2010,03,05,06,37,2.20
2010,03,05,06,38,2.20
2010,03,05,06,39,2.20
2010,03,05,06,40,2.20
2010,03,05,06,41,2.20
2010,03,05,06,42,2.20
2010,03,05,06,43,2.20
2010,03,05,06,44,2.20
2010,03,05,06,45,2.20
2010,03,05,06,46,2.20
2010,03,05,06,47,2.10
2010,03,05,06,48,2.10
2010,03,05,06,49,2.10
2010,03,05,06,50,2.10
2010,03,05,06,51,2.10
2010,03,05,06,52,2.10
2010,03,05,06,53,2.10
2010,03,05,06,54,2.10
2010,03,05,06,55,2.10
2010,03,05,06,56,2.10
2010,03,05,06,57,2.10
2010,03,05,06,58,2.10
2010,03,05,06,59,2.10
2010,03,05,07,00,2.10
2010,03,05,07,01,2.10
2010,03,05,07,02,2.00
2010,03,05,07,03,2.00
2010,03,05,07,04,2.00
2010,03,05,07,05,2.00
2010,03,05,07,06,2.00
2010,03,05,07,07,2.00
2010,03,05,07,08,2.00
2010,03,05,07,09,2.00
2010,03,05,07,10,2.00
2010,03,05,07,11,2.00
2010,03,05,07,12,2.00
2010,03,05,07,13,2.00
2010,03,05,07,14,2.00
2010,03,05,07,15,2.00
2010,03,05,07,16,2.00
2010,03,05,07,17,2.00
2010,03,05,07,18,2.00
2010,03,05,07,19,2.00
2010,03,05,07,20,2.00
2010,03,05,07,21,2.00
2010,03,05,07,22,2.00
2010,03,05,07,23,2.00
2010,03,05,07,24,2.00
2010,03,05,07,25,2.00
2010,03,05,07,26,2.00
2010,03,05,07,27,2.00
2010,03,05,07,28,2.00
2010,03,05,07,29,2.00
2010,03,05,07,30,2.00
2010,03,05,07,31,2.00
2010,03,05,07,32,2.00
2010,03,05,07,33,2.00
2010,03,05,07,34,2.00
2010,03,05,07,35,2.00
2010,03,05,07,36,2.10
2010,03,05,07,37,2.10
2010,03,05,07,38,2.10
2010,03,05,07,39,2.20
2010,03,05,07,40,2.20
2010,03,05,07,41,2.20
2010,03,05,07,42,2.20
2010,03,05,07,43,2.20
2010,03,05,07,44,2.20
2010,03,05,07,45,2.20
2010,03,05,07,46,2.20
2010,03,05,07,47,2.20
2010,03,05,07,48,2.20
2010,03,05,07,49,2.20
2010,03,05,07,50,2.20
2010,03,05,07,51,2.30
2010,03,05,07,52,2.30
2010,03,05,07,53,2.30
2010,03,05,07,54,2.30
2010,03,05,07,55,2.30
2010,03,05,07,56,2.30
2010,03,05,07,57,2.30
2010,03,05,07,58,2.30
2010,03,05,07,59,2.30
2010,03,05,08,00,2.30
2010,03,05,08,01,2.40
2010,03,05,08,02,2.40
2010,03,05,08,03,2.40
2010,03,05,08,04,2.40
2010,03,05,08,05,2.40
2010,03,05,08,06,2.40
2010,03,05,08,07,2.40
2010,03,05,08,08,2.40
2010,03,05,08,09,2.40
2010,03,05,08,10,2.50
2010,03,05,08,11,2.60
2010,03,05,08,12,2.60
2010,03,05,08,13,2.60
2010,03,05,08,14,2.60
2010,03,05,08,15,2.60
2010,03,05,08,16,2.60
2010,03,05,08,17,2.60
2010,03,05,08,18,2.60
2010,03,05,08,19,2.70
2010,03,05,08,20,2.70
2010,03,05,08,21,2.70
2010,03,05,08,22,2.70
2010,03,05,08,23,2.70
2010,03,05,08,24,2.70
2010,03,05,08,25,2.70
2010,03,05,08,26,2.70
2010,03,05,08,27,2.80
2010,03,05,08,28,2.80
2010,03,05,08,29,2.80
2010,03,05,08,30,2.80
2010,03,05,08,31,2.80
2010,03,05,08,32,2.90
2010,03,05,08,33,2.90
2010,03,05,08,34,2.90
2010,03,05,08,35,3.00
2010,03,05,08,36,3.00
2010,03,05,08,37,3.10
2010,03,05,08,38,3.10
2010,03,05,08,39,3.10
2010,03,05,08,40,3.20
2010,03,05,08,41,3.20
2010,03,05,08,42,3.20
2010,03,05,08,43,3.30
2010,03,05,08,44,3.30
2010,03,05,08,45,3.30
2010,03,05,08,46,3.40
2010,03,05,08,47,3.40
2010,03,05,08,48,3.50
2010,03,05,08,49,3.50
2010,03,05,08,50,3.60
2010,03,05,08,51,3.70
2010,03,05,08,52,3.70
2010,03,05,08,53,3.80
2010,03,05,08,54,3.80
2010,03,05,08,55,3.90
2010,03,05,08,56,3.90
2010,03,05,08,57,3.90
2010,03,05,08,58,4.00
2010,03,05,08,59,4.00
2010,03,05,09,00,4.00
2010,03,05,09,01,4.10
2010,03,05,09,02,4.10
2010,03,05,09,03,4.20
2010,03,05,09,04,4.20
2010,03,05,09,05,4.20
2010,03,05,09,06,4.30
2010,03,05,09,07,4.30
2010,03,05,09,08,4.30
2010,03,05,09,09,4.40
2010,03,05,09,10,4.40
2010,03,05,09,11,4.40
2010,03,05,09,12,4.50
2010,03,05,09,13,4.50
2010,03,05,09,14,4.60
2010,03,05,09,15,4.60
2010,03,05,09,16,4.70
2010,03,05,09,17,4.80
2010,03,05,09,18,4.80
2010,03,05,09,19,4.90
2010,03,05,09,20,4.90
2010,03,05,09,21,5.00
2010,03,05,09,22,5.10
2010,03,05,09,23,5.10
2010,03,05,09,24,5.20
2010,03,05,09,25,5.30
2010,03,05,09,26,5.30
2010,03,05,09,27,5.30
2010,03,05,09,28,5.40
2010,03,05,09,29,5.40
2010,03,05,09,30,5.50
2010,03,05,09,31,5.50
2010,03,05,09,32,5.60
2010,03,05,09,33,5.60
2010,03,05,09,34,5.70
2010,03,05,09,35,5.80
2010,03,05,09,36,5.90
2010,03,05,09,37,5.90
2010,03,05,09,38,6.00
2010,03,05,09,39,6.00
2010,03,05,09,40,6.10
2010,03,05,09,41,6.10
2010,03,05,09,42,6.20
2010,03,05,09,43,6.20
2010,03,05,09,44,6.30
2010,03,05,09,45,6.30
2010,03,05,09,46,6.30
2010,03,05,09,47,6.30
2010,03,05,09,48,6.40
2010,03,05,09,49,6.40
2010,03,05,09,50,6.40
2010,03,05,09,51,6.50
2010,03,05,09,52,6.50
2010,03,05,09,53,6.60
2010,03,05,09,54,6.60
2010,03,05,09,55,6.70
2010,03,05,09,56,6.70
2010,03,05,09,57,6.80
2010,03,05,09,58,6.80
2010,03,05,09,59,6.90
2010,03,05,10,00,6.90
2010,03,05,10,01,6.90
2010,03,05,10,02,7.00
2010,03,05,10,03,7.10
2010,03,05,10,04,7.20
2010,03,05,10,05,7.20
2010,03,05,10,06,7.20
2010,03,05,10,07,7.30
2010,03,05,10,08,7.40
2010,03,05,10,09,7.40
2010,03,05,10,10,7.40
2010,03,05,10,11,7.50
2010,03,05,10,12,7.50
2010,03,05,10,13,7.60
2010,03,05,10,14,7.60
2010,03,05,10,15,7.70
2010,03,05,10,16,7.70
2010,03,05,10,17,7.70
2010,03,05,10,18,7.80
2010,03,05,10,19,7.80
2010,03,05,10,20,7.80
2010,03,05,10,21,7.90
2010,03,05,10,22,7.90
2010,03,05,10,23,7.90
2010,03,05,10,24,7.90
2010,03,05,10,25,8.00
2010,03,05,10,26,8.10
2010,03,05,10,27,8.10
2010,03,05,10,28,8.20
2010,03,05,10,29,8.20
2010,03,05,10,30,8.30
2010,03,05,10,31,8.40
2010,03,05,10,32,8.40
2010,03,05,10,33,8.50
2010,03,05,10,34,8.50
2010,03,05,10,35,8.60
2010,03,05,10,36,8.60
2010,03,05,10,37,8.60
2010,03,05,10,38,8.60
2010,03,05,10,39,8.60
2010,03,05,10,40,8.70
2010,03,05,10,41,8.70
2010,03,05,10,42,8.70
2010,03,05,10,43,8.70
2010,03,05,10,44,8.70
2010,03,05,10,45,8.70
2010,03,05,10,46,8.80
2010,03,05,10,47,8.80
2010,03,05,10,48,8.90
2010,03,05,10,49,8.90
2010,03,05,10,50,9.00
2010,03,05,10,51,9.00
2010,03,05,10,52,9.00
2010,03,05,10,53,9.10
2010,03,05,10,54,9.10
2010,03,05,10,55,9.10
2010,03,05,10,56,9.10
2010,03,05,10,57,9.20
2010,03,05,10,58,9.20
2010,03,05,10,59,9.20
2010,03,05,11,00,9.30
2010,03,05,11,01,9.30
2010,03,05,11,02,9.30
2010,03,05,11,03,9.30
2010,03,05,11,04,9.30
2010,03,05,11,05,9.30
2010,03,05,11,06,9.40
2010,03,05,11,07,9.40
2010,03,05,11,08,9.50
2010,03,05,11,09,9.50
2010,03,05,11,10,9.60
2010,03,05,11,11,9.60
2010,03,05,11,12,9.60
2010,03,05,11,13,9.70
2010,03,05,11,14,9.80
2010,03,05,11,15,9.90
2010,03,05,11,16,10.00
2010,03,05,11,17,10.10
2010,03,05,11,18,10.20
2010,03,05,11,19,10.30
2010,03,05,11,20,10.40
2010,03,05,11,21,10.40
2010,03,05,11,22,10.50
2010,03,05,11,23,10.50
2010,03,05,11,24,10.60
2010,03,05,11,25,10.60
2010,03,05,11,26,10.70
2010,03,05,11,27,10.70
2010,03,05,11,28,10.70
2010,03,05,11,29,10.80
2010,03,05,11,30,10.80
2010,03,05,11,31,10.80
2010,03,05,11,32,10.80
2010,03,05,11,33,10.80
2010,03,05,11,34,10.90
2010,03,05,11,35,10.90
2010,03,05,11,36,10.90
2010,03,05,11,37,11.00
2010,03,05,11,38,11.00
2010,03,05,11,39,11.00
2010,03,05,11,40,10.80
2010,03,05,11,41,10.80
2010,03,05,11,42,10.60
2010,03,05,11,43,10.50
2010,03,05,11,44,10.40
2010,03,05,11,45,10.30
2010,03,05,11,46,10.30
2010,03,05,11,47,10.20
2010,03,05,11,48,10.10
2010,03,05,11,49,10.10
2010,03,05,11,50,10.10
2010,03,05,11,51,10.10
2010,03,05,11,52,10.10
2010,03,05,11,53,10.10
2010,03,05,11,54,10.10
2010,03,05,11,55,10.20
2010,03,05,11,56,10.30
2010,03,05,11,57,10.40
2010,03,05,11,58,10.50
2010,03,05,11,59,10.60
2010,03,05,12,00,10.80
2010,03,05,12,01,10.90
2010,03,05,12,02,11.00
2010,03,05,12,03,11.10
2010,03,05,12,04,11.20
2010,03,05,12,05,11.20
2010,03,05,12,06,11.10
2010,03,05,12,07,11.00
2010,03,05,12,08,10.90
2010,03,05,12,09,10.90
2010,03,05,12,10,10.80
2010,03,05,12,11,10.90
2010,03,05,12,12,11.00
2010,03,05,12,13,11.00
2010,03,05,12,14,11.20
2010,03,05,12,15,11.20
2010,03,05,12,16,11.40
2010,03,05,12,17,11.50
2010,03,05,12,18,11.60
2010,03,05,12,19,11.70
2010,03,05,12,20,11.80
2010,03,05,12,21,11.90
2010,03,05,12,22,11.90
2010,03,05,12,23,12.00
2010,03,05,12,24,12.10
2010,03,05,12,25,12.10
2010,03,05,12,26,12.10
2010,03,05,12,27,12.20
2010,03,05,12,28,12.30
2010,03,05,12,29,12.30
2010,03,05,12,30,12.20
2010,03,05,12,31,12.20
2010,03,05,12,32,12.10
2010,03,05,12,33,12.10
2010,03,05,12,34,12.10
2010,03,05,12,35,12.10
2010,03,05,12,36,12.00
2010,03,05,12,37,12.00
2010,03,05,12,38,12.00
2010,03,05,12,39,12.00
2010,03,05,12,40,12.00
2010,03,05,12,41,12.00
2010,03,05,12,42,12.00
2010,03,05,12,43,12.00
2010,03,05,12,44,11.90
2010,03,05,12,45,11.80
2010,03,05,12,46,11.80
2010,03,05,12,47,11.80
2010,03,05,12,48,11.80
2010,03,05,12,49,11.80
2010,03,05,12,50,11.90
2010,03,05,12,51,12.00
2010,03,05,12,52,12.10
2010,03,05,12,53,12.20
2010,03,05,12,54,12.30
2010,03,05,12,55,12.40
2010,03,05,12,56,12.50
2010,03,05,12,57,12.60
2010,03,05,12,58,12.60
2010,03,05,12,59,12.70
2010,03,05,13,00,12.80
2010,03,05,13,01,12.80
2010,03,05,13,02,12.90
2010,03,05,13,03,12.90
2010,03,05,13,04,12.90
2010,03,05,13,05,13.00
2010,03,05,13,06,13.00
2010,03,05,13,07,13.00
2010,03,05,13,08,13.00
2010,03,05,13,09,13.00
2010,03,05,13,10,12.90
2010,03,05,13,11,12.80
2010,03,05,13,12,12.70
2010,03,05,13,13,12.50
2010,03,05,13,14,12.30
2010,03,05,13,15,12.20
2010,03,05,13,16,12.10
2010,03,05,13,17,12.10
2010,03,05,13,18,12.10
2010,03,05,13,19,12.20
2010,03,05,13,20,12.30
2010,03,05,13,21,12.30
2010,03,05,13,22,12.40
2010,03,05,13,23,12.50
2010,03,05,13,24,12.60
2010,03,05,13,25,12.70
2010,03,05,13,26,12.70
2010,03,05,13,27,12.70
2010,03,05,13,28,12.70
2010,03,05,13,29,12.80
2010,03,05,13,30,12.80
2010,03,05,13,31,12.90
2010,03,05,13,32,13.00
2010,03,05,13,33,13.10
2010,03,05,13,34,13.10
2010,03,05,13,35,13.20
2010,03,05,13,36,13.20
2010,03,05,13,37,13.30
2010,03,05,13,38,13.30
2010,03,05,13,39,13.30
2010,03,05,13,40,13.40
2010,03,05,13,41,13.40
2010,03,05,13,42,13.50
2010,03,05,13,43,13.50
2010,03,05,13,44,13.50
2010,03,05,13,45,13.50
2010,03,05,13,46,13.50
2010,03,05,13,47,13.50
2010,03,05,13,48,13.40
2010,03,05,13,49,13.40
2010,03,05,13,50,13.40
2010,03,05,13,51,13.40
2010,03,05,13,52,13.40
2010,03,05,13,53,13.50
2010,03,05,13,54,13.50
2010,03,05,13,55,13.60
2010,03,05,13,56,13.60
2010,03,05,13,57,13.50
2010,03,05,13,58,13.40
2010,03,05,13,59,13.30
2010,03,05,14,00,13.20
2010,03,05,14,01,13.20
2010,03,05,14,02,13.20
2010,03,05,14,03,13.30
2010,03,05,14,04,13.30
2010,03,05,14,05,13.40
2010,03,05,14,06,13.50
2010,03,05,14,07,13.60
2010,03,05,14,08,13.70
2010,03,05,14,09,13.80
2010,03,05,14,10,13.90
2010,03,05,14,11,14.00
2010,03,05,14,12,14.00
2010,03,05,14,13,14.10
2010,03,05,14,14,14.10
2010,03,05,14,15,14.10
2010,03,05,14,16,14.20
2010,03,05,14,17,14.20
2010,03,05,14,18,14.20
2010,03,05,14,19,14.30
2010,03,05,14,20,14.30
2010,03,05,14,21,14.30
2010,03,05,14,22,14.20
2010,03,05,14,23,14.20
2010,03,05,14,24,14.20
2010,03,05,14,25,14.20
2010,03,05,14,26,14.20
2010,03,05,14,27,14.20
2010,03,05,14,28,14.20
2010,03,05,14,29,14.20
2010,03,05,14,30,14.20
2010,03,05,14,31,14.20
2010,03,05,14,32,14.10
2010,03,05,14,33,14.00
2010,03,05,14,34,14.00
2010,03,05,14,35,13.90
2010,03,05,14,36,13.90
2010,03,05,14,37,13.80
2010,03,05,14,38,13.80
2010,03,05,14,39,13.80
2010,03,05,14,40,13.80
2010,03,05,14,41,13.70
2010,03,05,14,42,13.70
2010,03,05,14,43,13.60
2010,03,05,14,44,13.60
2010,03,05,14,45,13.50
2010,03,05,14,46,13.50
2010,03,05,14,47,13.50
2010,03,05,14,48,13.60
2010,03,05,14,49,13.60
2010,03,05,14,50,13.60
2010,03,05,14,51,13.60
2010,03,05,14,52,13.60
2010,03,05,14,53,13.60
2010,03,05,14,54,13.50
2010,03,05,14,55,13.50
2010,03,05,14,56,13.40
2010,03,05,14,57,13.50
2010,03,05,14,58,13.50
2010,03,05,14,59,13.50
2010,03,05,15,00,13.60
2010,03,05,15,01,13.60
2010,03,05,15,02,13.70
2010,03,05,15,03,13.70
2010,03,05,15,04,13.80
2010,03,05,15,05,13.80
2010,03,05,15,06,13.70
2010,03,05,15,07,13.70
2010,03,05,15,08,13.60
2010,03,05,15,09,13.60
2010,03,05,15,10,13.50
2010,03,05,15,11,13.40
2010,03,05,15,12,13.40
2010,03,05,15,13,13.40
2010,03,05,15,14,13.40
2010,03,05,15,15,13.30
2010,03,05,15,16,13.20
2010,03,05,15,17,13.20
2010,03,05,15,18,13.20
2010,03,05,15,19,13.20
2010,03,05,15,20,13.10
2010,03,05,15,21,13.00
2010,03,05,15,22,12.90
2010,03,05,15,23,12.90
2010,03,05,15,24,12.90
2010,03,05,15,25,13.00
2010,03,05,15,26,13.00
2010,03,05,15,27,13.10
2010,03,05,15,28,13.20
2010,03,05,15,29,13.30
2010,03,05,15,30,13.40
2010,03,05,15,31,13.40
2010,03,05,15,32,13.50
2010,03,05,15,33,13.60
2010,03,05,15,34,13.60
2010,03,05,15,35,13.70
2010,03,05,15,36,13.70
2010,03,05,15,37,13.70
2010,03,05,15,38,13.70
2010,03,05,15,39,13.70
2010,03,05,15,40,13.80
2010,03,05,15,41,13.80
2010,03,05,15,42,13.80
2010,03,05,15,43,13.80
2010,03,05,15,44,13.80
2010,03,05,15,45,13.90
2010,03,05,15,46,13.90
2010,03,05,15,47,13.90
2010,03,05,15,48,13.90
2010,03,05,15,49,13.90
2010,03,05,15,50,13.90
2010,03,05,15,51,13.90
2010,03,05,15,52,13.90
2010,03,05,15,53,13.90
2010,03,05,15,54,13.90
2010,03,05,15,55,14.00
2010,03,05,15,56,14.00
2010,03,05,15,57,13.90
2010,03,05,15,58,13.90
2010,03,05,15,59,13.80
2010,03,05,16,00,13.80
2010,03,05,16,01,13.90
2010,03,05,16,02,13.90
2010,03,05,16,03,13.80
2010,03,05,16,04,13.70
2010,03,05,16,05,13.70
2010,03,05,16,06,13.70
2010,03,05,16,07,13.70
2010,03,05,16,08,13.70
2010,03,05,16,09,13.70
2010,03,05,16,10,13.70
2010,03,05,16,11,13.70
2010,03,05,16,12,13.70
2010,03,05,16,13,13.70
2010,03,05,16,14,13.70
2010,03,05,16,15,13.70
2010,03,05,16,16,13.70
2010,03,05,16,17,13.60
2010,03,05,16,18,13.50
2010,03,05,16,19,13.40
2010,03,05,16,20,13.40
2010,03,05,16,21,13.30
2010,03,05,16,22,13.30
2010,03,05,16,23,13.30
2010,03,05,16,24,13.30
2010,03,05,16,25,13.30
2010,03,05,16,26,13.20
2010,03,05,16,27,13.20
2010,03,05,16,28,13.20
2010,03,05,16,29,13.10
2010,03,05,16,30,13.10
2010,03,05,16,31,13.20
2010,03,05,16,32,13.20
2010,03,05,16,33,13.20
2010,03,05,16,34,13.20
2010,03,05,16,35,13.20
2010,03,05,16,36,13.10
2010,03,05,16,37,13.10
2010,03,05,16,38,13.10
2010,03,05,16,39,13.20
2010,03,05,16,40,13.20
2010,03,05,16,41,13.30
2010,03,05,16,42,13.30
2010,03,05,16,43,13.30
2010,03,05,16,44,13.40
2010,03,05,16,45,13.40
2010,03,05,16,46,13.40
2010,03,05,16,47,13.40
2010,03,05,16,48,13.40
2010,03,05,16,49,13.50
2010,03,05,16,50,13.50
2010,03,05,16,51,13.50
2010,03,05,16,52,13.50
2010,03,05,16,53,13.50
2010,03,05,16,54,13.50
2010,03,05,16,55,13.40
2010,03,05,16,56,13.40
2010,03,05,16,57,13.30
2010,03,05,16,58,13.20
2010,03,05,16,59,13.10
2010,03,05,17,00,13.00
2010,03,05,17,01,12.90
2010,03,05,17,02,12.80
2010,03,05,17,03,12.60
2010,03,05,17,04,12.50
2010,03,05,17,05,12.40
2010,03,05,17,06,12.30
2010,03,05,17,07,12.20
2010,03,05,17,08,12.10
2010,03,05,17,09,12.00
2010,03,05,17,10,11.90
2010,03,05,17,11,11.80
2010,03,05,17,12,11.80
2010,03,05,17,13,11.70
2010,03,05,17,14,11.70
2010,03,05,17,15,11.60
2010,03,05,17,16,11.60
2010,03,05,17,17,11.50
2010,03,05,17,18,11.50
2010,03,05,17,19,11.40
2010,03,05,17,20,11.40
2010,03,05,17,21,11.40
2010,03,05,17,22,11.30
2010,03,05,17,23,11.30
2010,03,05,17,24,11.30
2010,03,05,17,25,11.30
2010,03,05,17,26,11.30
2010,03,05,17,27,11.20
2010,03,05,17,28,11.20
2010,03,05,17,29,11.20
2010,03,05,17,30,11.20
2010,03,05,17,31,11.20
2010,03,05,17,32,11.20
2010,03,05,17,33,11.20
2010,03,05,17,34,11.20
2010,03,05,17,35,11.20
2010,03,05,17,36,11.20
2010,03,05,17,37,11.20
2010,03,05,17,38,11.30
2010,03,05,17,39,11.30
2010,03,05,17,40,11.30
2010,03,05,17,41,11.30
2010,03,05,17,42,11.30
2010,03,05,17,43,11.30
2010,03,05,17,44,11.20
2010,03,05,17,45,11.20
2010,03,05,17,46,11.10
2010,03,05,17,47,11.10
2010,03,05,17,48,11.00